Owatonna, MN

5:48 AM CST on February 13, 2016 (GMT -0600)
Owatonna Degner Regional

Weather History for KOWA - January, 2013

Change the Weather History Date:

Monday, January 28, 2013

  Actual Average Record
Temperature  
Mean Temperature 35 °F -  
Max Temperature 37 °F 22 °F 42 °F (1989)
Min Temperature 33 °F 4 °F -25 °F (1966)
Degree Days  
Heating Degree Days 30    
Moisture  
Dew Point 30 °F    
Average Humidity 82    
Maximum Humidity 87    
Minimum Humidity 81    
Precipitation  
Precipitation 0.25 in - - ()
Sea Level Pressure  
Sea Level Pressure 29.79 in    
Wind  
Wind Speed 2 mph (ESE)    
Max Wind Speed 8 mph    
Max Gust Speed -    
Visibility 2 miles    
Events Fog , Rain , Snow , Thunderstorm    
Averages and records for this station are not official NWS values.
T = Trace of Precipitation, MM = Missing Value Source: NWS Daily Summary

Daily Weather History Graph

Daily Weather History Graph

Search for Another Location

Airport or City:

Trip Planner

Search our weather history database for the weather conditions in past years. The results will help you decide how hot, cold, wet, or windy it might be!

Date:

Astronomy

Jan. 28, 2013 Rise Set
Actual Time 7:34 AM CST 5:18 PM CST
Civil Twilight 7:03 AM CST 5:49 PM CST
Nautical Twilight 6:28 AM CST 6:23 PM CST
Astronomical Twilight 5:54 AM CST 6:58 PM CST
Moon 7:19 PM CST (1/28) 7:55 AM CST (1/28)
Length of Visible Light 10h 45m
Length of Day
9h 43m
Full, 98% of the Moon is Illuminated
Jan 28
Full
Feb 3
Last Quarter
Feb 10
New
Feb 17
First Quarter
Feb 25
Full

Hourly Weather History & Observations

Time (CST) Temp. Windchill Dew Point Humidity Pressure Visibility Wind Dir Wind Speed Gust Speed Precip Events Conditions
12:13 AM 35.6 °F - 30.2 °F 81% 29.77 in 1.8 mi Calm Calm - N/A   Haze
12:33 AM 35.6 °F - 30.2 °F 81% 29.76 in 1.8 mi Calm Calm - N/A   Haze
12:53 AM 35.6 °F - 30.2 °F 81% 29.77 in 1.8 mi Calm Calm - N/A   Haze
1:13 AM 35.6 °F - 30.2 °F 81% 29.77 in 2.5 mi Calm Calm - N/A   Haze
1:53 AM 33.8 °F - 28.4 °F 81% 29.78 in 1.8 mi Calm Calm - N/A   Haze
2:14 AM 33.8 °F - 30.2 °F 87% 29.79 in 1.0 mi Calm Calm - N/A   Overcast
2:33 AM 33.8 °F - 30.2 °F 87% 29.80 in 0.2 mi Calm Calm - N/A Fog Fog
2:53 AM 33.8 °F - 30.2 °F 87% 29.80 in 0.8 mi Calm Calm - N/A   Overcast
3:14 AM 33.8 °F - 30.2 °F 87% 29.81 in 2.5 mi Calm Calm - N/A   Overcast
3:33 AM 33.8 °F - 30.2 °F 87% 29.80 in 5.0 mi Calm Calm - N/A   Overcast
3:54 AM 33.8 °F - 30.2 °F 87% 29.81 in 5.0 mi Calm Calm - N/A   Overcast
4:14 AM 33.8 °F - 28.4 °F 81% 29.82 in 4.0 mi Calm Calm - N/A   Haze
4:34 AM 33.8 °F - 28.4 °F 81% 29.82 in 2.5 mi Calm Calm - N/A   Haze
4:53 AM 33.8 °F - 28.4 °F 81% 29.82 in 1.8 mi Calm Calm - N/A   Haze
5:14 AM 33.8 °F - 28.4 °F 81% 29.82 in 2.0 mi Calm Calm - N/A   Haze
6:14 AM 33.8 °F - 28.4 °F 81% 29.82 in 1.5 mi Calm Calm - N/A   Overcast
6:34 AM 33.8 °F - 28.4 °F 81% 29.83 in 1.8 mi Calm Calm - N/A   Overcast
6:54 AM 33.8 °F - 28.4 °F 81% 29.85 in 1.2 mi Calm Calm - N/A   Overcast
7:13 AM 33.8 °F - 28.4 °F 81% 29.84 in 0.5 mi Calm Calm - N/A Fog Fog
7:33 AM 33.8 °F - 28.4 °F 81% 29.85 in 0.8 mi Calm Calm - N/A   Overcast
7:54 AM 33.8 °F - 28.4 °F 81% 29.85 in 0.5 mi Calm Calm - N/A Fog Fog
8:14 AM 33.8 °F - 28.4 °F 81% 29.86 in 1.5 mi Calm Calm - N/A   Haze
8:33 AM 33.8 °F - 28.4 °F 81% 29.86 in 0.5 mi Calm Calm - N/A   Haze
8:53 AM 33.8 °F - 28.4 °F 81% 29.87 in 0.5 mi Calm Calm - N/A Fog Fog
9:14 AM 33.8 °F - 28.4 °F 81% 29.87 in 4.0 mi Calm Calm - N/A   Overcast
9:34 AM 33.8 °F - 28.4 °F 81% 29.87 in 4.0 mi Calm Calm - N/A   Haze
9:54 AM 33.8 °F 30.8 °F 28.4 °F 81% 29.87 in 3.0 mi SSW 3.5 mph - N/A   Haze
10:14 AM 33.8 °F - 30.2 °F 87% 29.88 in 3.0 mi Calm Calm - N/A   Overcast
10:33 AM 33.8 °F - 30.2 °F 87% 29.89 in 4.0 mi Calm Calm - N/A   Overcast
10:53 AM 33.8 °F - 28.4 °F 81% 29.88 in 3.0 mi Calm Calm - N/A   Haze
11:14 AM 35.6 °F - 30.2 °F 81% 29.87 in 2.0 mi Calm Calm - N/A   Haze
11:33 AM 35.6 °F 32.8 °F 30.2 °F 81% 29.86 in 3.0 mi SE 3.5 mph - N/A   Haze
11:54 AM 35.6 °F 31.7 °F 30.2 °F 81% 29.84 in 2.5 mi ESE 4.6 mph - N/A   Haze
12:14 PM 35.6 °F 31.7 °F 30.2 °F 81% 29.85 in 2.5 mi SE 4.6 mph - N/A   Haze
12:33 PM 35.6 °F 31.7 °F 30.2 °F 81% 29.85 in 1.0 mi SSE 4.6 mph - N/A   Haze
12:53 PM 35.6 °F 31.7 °F 30.2 °F 81% 29.84 in 0.5 mi SSE 4.6 mph - N/A   Haze
1:13 PM 35.6 °F - 30.2 °F 81% 29.84 in 0.5 mi Calm Calm - N/A Fog Fog
1:33 PM 35.6 °F 32.8 °F 30.2 °F 81% 29.83 in 0.5 mi SE 3.5 mph - N/A Fog Fog
1:54 PM 35.6 °F 32.8 °F 30.2 °F 81% 29.82 in 0.5 mi ESE 3.5 mph - N/A Fog Fog
2:14 PM 35.6 °F 32.8 °F 30.2 °F 81% 29.81 in 0.5 mi SE 3.5 mph - N/A Fog Fog
2:33 PM 35.6 °F 31.7 °F 30.2 °F 81% 29.81 in 0.8 mi SE 4.6 mph - N/A   Haze
2:53 PM 35.6 °F 29.9 °F 30.2 °F 81% 29.81 in 1.0 mi SSE 6.9 mph - N/A   Haze
3:13 PM 35.6 °F 31.7 °F 30.2 °F 81% 29.80 in 1.5 mi ESE 4.6 mph - N/A   Haze
3:34 PM 35.6 °F 30.7 °F 30.2 °F 81% 29.80 in 1.5 mi ESE 5.8 mph - N/A   Haze
3:54 PM 35.6 °F 29.9 °F 30.2 °F 81% 29.80 in 1.0 mi SE 6.9 mph - N/A   Haze
4:14 PM 35.6 °F 31.7 °F 30.2 °F 81% 29.80 in 1.5 mi SE 4.6 mph - N/A   Haze
4:34 PM 35.6 °F 30.7 °F 30.2 °F 81% 29.79 in 2.0 mi ESE 5.8 mph - N/A   Haze
4:53 PM 35.6 °F 29.2 °F 30.2 °F 81% 29.78 in 1.5 mi ESE 8.1 mph - N/A   Haze
5:13 PM 35.6 °F 31.7 °F 30.2 °F 81% 29.78 in 3.0 mi East 4.6 mph - N/A   Haze
5:33 PM 35.6 °F 30.7 °F 30.2 °F 81% 29.78 in 4.0 mi ESE 5.8 mph - N/A   Haze
5:54 PM 35.6 °F 31.7 °F 30.2 °F 81% 29.78 in 5.0 mi SE 4.6 mph - N/A   Haze
6:14 PM 35.6 °F 30.7 °F 30.2 °F 81% 29.77 in 2.5 mi East 5.8 mph - N/A   Haze
6:34 PM 35.6 °F 30.7 °F 30.2 °F 81% 29.76 in 3.0 mi East 5.8 mph - N/A   Haze
6:53 PM 35.6 °F 30.7 °F 30.2 °F 81% 29.74 in 3.0 mi East 5.8 mph - N/A   Haze
7:14 PM 35.6 °F 30.7 °F 30.2 °F 81% 29.75 in 2.5 mi ESE 5.8 mph - N/A   Haze
7:34 PM 35.6 °F 29.9 °F 30.2 °F 81% 29.75 in 3.0 mi ESE 6.9 mph - N/A   Haze
7:54 PM 35.6 °F 29.9 °F 30.2 °F 81% 29.74 in 3.0 mi ESE 6.9 mph - N/A   Overcast
8:14 PM 35.6 °F 29.2 °F 30.2 °F 81% 29.72 in 4.0 mi ESE 8.1 mph - N/A   Overcast
8:34 PM 35.6 °F 29.9 °F 30.2 °F 81% 29.71 in 7.0 mi East 6.9 mph - N/A   Overcast
8:55 PM 35.6 °F 30.7 °F 30.2 °F 81% 29.70 in 5.0 mi East 5.8 mph - N/A   Haze
9:13 PM 35.6 °F 30.7 °F 30.2 °F 81% 29.68 in 2.5 mi East 5.8 mph - N/A   Haze
9:33 PM 35.6 °F 31.7 °F 30.2 °F 81% 29.67 in 1.8 mi East 4.6 mph - 0.03 in Rain Rain
9:54 PM 35.6 °F 29.9 °F 30.2 °F 81% 29.64 in 2.5 mi East 6.9 mph - 0.09 in Rain , Thunderstorm Rain
10:14 PM 35.6 °F 32.8 °F 30.2 °F 81% 29.63 in 3.0 mi East 3.5 mph - 0.16 in Snow Light Snow
10:34 PM 37.4 °F 32.8 °F 32.0 °F 81% 29.60 in 1.5 mi East 5.8 mph - 0.16 in   Light Drizzle
10:54 PM 37.4 °F - 32.0 °F 81% 29.62 in 1.5 mi Calm Calm - 0.16 in Snow Light Snow
11:14 PM 37.4 °F - 32.0 °F 81% 29.62 in 1.2 mi Calm Calm - N/A Snow Light Snow
11:34 PM 35.6 °F - 30.2 °F 81% 29.61 in 1.0 mi Calm Calm - N/A   Light Drizzle
11:54 PM 35.6 °F - 30.2 °F 81% 29.61 in 1.0 mi Calm Calm - N/A   Light Drizzle